�������l�o���
Date,Time,MP-1(��Sv/h),MP-2(��Sv/h),MP-3(��Sv/h),MP-4(��Sv/h),MP-5(��Sv/h),MP-6(��Sv/h),MP-7(��Sv/h),MP-8(��Sv/h),����,����(m/s),���J
2021/04/02,00:00,0.628,0.924,0.586,1.138,0.809,0.371,0.651,0.612,�k�k��,6.2,��
2021/04/02,00:10,0.628,0.924,0.585,1.137,0.810,0.369,0.652,0.612,�k�k��,7.2,��
2021/04/02,00:20,0.626,0.924,0.586,1.137,0.811,0.371,0.651,0.611,�k�k��,6.5,��
2021/04/02,00:30,0.628,0.924,0.584,1.138,0.810,0.371,0.651,0.612,�k�k��,6.6,��
2021/04/02,00:40,0.628,0.925,0.584,1.137,0.808,0.369,0.651,0.610,�k�k��,7.9,��
2021/04/02,00:50,0.628,0.925,0.585,1.138,0.809,0.370,0.651,0.611,�k�k��,7.2,��
2021/04/02,01:00,0.627,0.927,0.587,1.137,0.808,0.371,0.652,0.612,�k�k��,6.7,��
2021/04/02,01:10,0.629,0.926,0.586,1.138,0.809,0.371,0.651,0.613,�k�k��,6.7,��
2021/04/02,01:20,0.628,0.925,0.585,1.137,0.811,0.370,0.652,0.611,�k�k��,6.6,��
2021/04/02,01:30,0.627,0.926,0.586,1.138,0.808,0.371,0.653,0.612,�k�k��,8.0,��
2021/04/02,01:40,0.626,0.926,0.584,1.137,0.809,0.370,0.652,0.612,�k�k��,7.6,��
2021/04/02,01:50,0.627,0.925,0.583,1.136,0.808,0.370,0.652,0.611,�k�k��,7.2,��
2021/04/02,02:00,0.626,0.925,0.587,1.137,0.810,0.371,0.653,0.612,�k�k��,7.4,��
2021/04/02,02:10,0.629,0.925,0.585,1.139,0.807,0.370,0.653,0.613,�k�k��,8.1,��
2021/04/02,02:20,0.627,0.926,0.587,1.138,0.809,0.369,0.653,0.612,�k�k��,8.1,��
2021/04/02,02:30,0.627,0.926,0.584,1.135,0.810,0.370,0.653,0.613,�k�k��,7.2,��
2021/04/02,02:40,0.627,0.924,0.585,1.137,0.809,0.370,0.653,0.613,�k�k��,7.5,��
2021/04/02,02:50,0.626,0.926,0.585,1.137,0.809,0.371,0.651,0.611,�k�k��,7.0,��
2021/04/02,03:00,0.628,0.923,0.586,1.137,0.809,0.370,0.650,0.612,�k�k��,7.0,��
2021/04/02,03:10,0.626,0.925,0.586,1.139,0.810,0.371,0.651,0.611,�k�k��,6.8,��
2021/04/02,03:20,0.626,0.923,0.584,1.139,0.809,0.370,0.651,0.613,�k�k��,6.5,��
2021/04/02,03:30,0.627,0.922,0.586,1.137,0.809,0.371,0.650,0.612,�k�k��,6.1,��
2021/04/02,03:40,0.627,0.921,0.585,1.136,0.809,0.370,0.652,0.612,�k�k��,5.9,��
2021/04/02,03:50,0.626,0.924,0.585,1.136,0.808,0.372,0.652,0.611,�k��,5.9,��
2021/04/02,04:00,0.626,0.922,0.584,1.136,0.809,0.369,0.652,0.611,�k��,5.6,��
2021/04/02,04:10,0.627,0.924,0.585,1.137,0.807,0.371,0.652,0.610,�k�k��,5.7,��
2021/04/02,04:20,0.625,0.923,0.586,1.138,0.810,0.369,0.651,0.612,�k��,6.5,��
2021/04/02,04:30,0.627,0.923,0.586,1.139,0.808,0.370,0.651,0.612,�k��,6.7,��
2021/04/02,04:40,0.625,0.921,0.583,1.137,0.807,0.369,0.650,0.611,�k�k��,6.4,��
2021/04/02,04:50,0.625,0.922,0.582,1.137,0.809,0.370,0.652,0.612,�k�k��,6.2,��
2021/04/02,05:00,0.627,0.923,0.584,1.138,0.808,0.370,0.652,0.610,�k�k��,6.2,��
2021/04/02,05:10,0.624,0.925,0.584,1.137,0.808,0.371,0.650,0.611,�k��,6.9,��
2021/04/02,05:20,0.625,0.922,0.583,1.135,0.808,0.369,0.650,0.613,�k�k��,6.2,��
2021/04/02,05:30,0.627,0.922,0.585,1.138,0.808,0.370,0.651,0.612,�k�k��,5.6,��
2021/04/02,05:40,0.626,0.922,0.583,1.137,0.808,0.369,0.650,0.610,�k��,6.6,��
2021/04/02,05:50,0.625,0.923,0.585,1.137,0.807,0.370,0.652,0.612,�k�k��,5.6,��
2021/04/02,06:00,0.625,0.922,0.586,1.139,0.808,0.370,0.650,0.611,�k�k��,6.1,��
2021/04/02,06:10,0.626,0.924,0.582,1.139,0.807,0.369,0.650,0.612,�k��,6.5,��
2021/04/02,06:20,0.626,0.923,0.585,1.137,0.808,0.369,0.650,0.611,�k�k��,5.8,��
2021/04/02,06:30,0.624,0.926,0.585,1.139,0.810,0.370,0.651,0.613,�k�k��,6.3,��
2021/04/02,06:40,0.626,0.925,0.586,1.136,0.808,0.370,0.651,0.611,�k��,5.7,��
2021/04/02,06:50,0.628,0.924,0.585,1.139,0.809,0.370,0.652,0.611,�k��,5.9,��
2021/04/02,07:00,0.626,0.926,0.584,1.137,0.808,0.371,0.653,0.612,�k�k��,5.6,��
2021/04/02,07:10,0.628,0.928,0.583,1.141,0.809,0.371,0.651,0.614,�k��,6.1,��
2021/04/02,07:20,0.628,0.927,0.584,1.136,0.809,0.370,0.652,0.613,�k��,6.5,��
2021/04/02,07:30,0.628,0.924,0.585,1.140,0.809,0.370,0.649,0.611,�k��,5.9,��
2021/04/02,07:40,0.628,0.926,0.587,1.138,0.810,0.371,0.650,0.612,�k��,6.3,��
2021/04/02,07:50,0.627,0.924,0.586,1.140,0.810,0.371,0.651,0.612,�k��,5.7,��
2021/04/02,08:00,0.629,0.924,0.586,1.138,0.811,0.371,0.649,0.612,�k��,6.2,��
2021/04/02,08:10,0.629,0.925,0.585,1.138,0.809,0.369,0.650,0.612,�k��,5.8,��
2021/04/02,08:20,0.628,0.923,0.584,1.137,0.811,0.370,0.651,0.613,�k��,4.3,��
2021/04/02,08:30,0.627,0.921,0.585,1.138,0.810,0.371,0.651,0.612,�k�k��,4.9,��
2021/04/02,08:40,0.628,0.923,0.588,1.139,0.808,0.370,0.649,0.611,�k��,5.1,��
2021/04/02,08:50,0.630,0.923,0.586,1.139,0.811,0.371,0.650,0.612,�k�k��,4.7,��
2021/04/02,09:00,0.628,0.922,0.585,1.138,0.810,0.371,0.650,0.613,�k�k��,5.3,��
2021/04/02,09:10,0.631,0.923,0.586,1.138,0.810,0.369,0.649,0.612,�k�k��,5.0,��
2021/04/02,09:20,0.630,0.922,0.586,1.136,0.809,0.371,0.649,0.610,�k�k��,4.6,��
2021/04/02,09:30,0.629,0.921,0.586,1.138,0.810,0.371,0.649,0.611,�k�k��,4.4,��
2021/04/02,09:40,0.628,0.921,0.586,1.141,0.809,0.370,0.649,0.612,�k�k��,4.5,��
2021/04/02,09:50,0.629,0.920,0.584,1.141,0.811,0.370,0.650,0.614,�k,3.9,��
2021/04/02,10:00,0.629,0.922,0.585,1.141,0.812,0.370,0.652,0.612,�k�k��,3.4,��
2021/04/02,10:10,0.627,0.920,0.587,1.137,0.812,0.369,0.650,0.612,�k�k��,4.1,��
2021/04/02,10:20,0.627,0.923,0.586,1.140,0.809,0.369,0.651,0.612,�k,5.2,��
2021/04/02,10:30,0.627,0.922,0.586,1.141,0.809,0.368,0.650,0.611,�k�k��,5.5,��
2021/04/02,10:40,0.626,0.922,0.585,1.139,0.809,0.368,0.651,0.611,�k,5.5,��
2021/04/02,10:50,0.627,0.925,0.586,1.139,0.810,0.369,0.651,0.610,�k�k��,5.2,��
2021/04/02,11:00,0.627,0.923,0.584,1.139,0.809,0.368,0.651,0.610,�k�k��,5.5,��
2021/04/02,11:10,0.626,0.925,0.585,1.140,0.810,0.369,0.651,0.610,�k,4.9,��
2021/04/02,11:20,0.628,0.927,0.584,1.141,0.809,0.369,0.651,0.609,�k�k��,3.8,��
2021/04/02,11:30,0.626,0.927,0.582,1.139,0.810,0.368,0.652,0.612,�k�k��,4.6,��
2021/04/02,11:40,0.626,0.926,0.584,1.139,0.810,0.368,0.650,0.611,�k�k��,5.2,��
2021/04/02,11:50,0.627,0.927,0.583,1.141,0.810,0.367,0.650,0.612,�k�k��,5.3,��
2021/04/02,12:00,0.629,0.925,0.583,1.141,0.806,0.368,0.650,0.611,�k�k��,5.3,��
2021/04/02,12:10,0.628,0.928,0.584,1.140,0.810,0.369,0.651,0.612,�k�k��,4.3,��
2021/04/02,12:20,0.628,0.926,0.585,1.141,0.810,0.370,0.651,0.611,�k,4.6,��
2021/04/02,12:30,0.628,0.924,0.584,1.143,0.812,0.370,0.651,0.612,�k�k��,4.4,��
2021/04/02,12:40,0.628,0.927,0.584,1.142,0.812,0.369,0.652,0.612,�k�k��,5.5,��
2021/04/02,12:50,0.630,0.927,0.585,1.142,0.811,0.368,0.651,0.612,�k�k��,4.8,��
2021/04/02,13:00,0.629,0.927,0.586,1.144,0.812,0.370,0.650,0.612,�k��,4.3,��
2021/04/02,13:10,0.630,0.927,0.586,1.142,0.811,0.370,0.650,0.611,�k�k��,4.4,��
2021/04/02,13:20,0.629,0.925,0.585,1.141,0.809,0.369,0.651,0.611,�k�k��,4.6,��
2021/04/02,13:30,0.629,0.924,0.585,1.144,0.811,0.368,0.650,0.612,�k,4.2,��
2021/04/02,13:40,0.630,0.927,0.585,1.142,0.811,0.371,0.651,0.612,�k�k��,3.6,��
2021/04/02,13:50,0.630,0.924,0.585,1.142,0.814,0.370,0.651,0.612,�k�k��,3.9,��
2021/04/02,14:00,0.629,0.925,0.584,1.143,0.813,0.370,0.651,0.611,�k�k��,3.8,��
2021/04/02,14:10,0.628,0.927,0.583,1.143,0.812,0.370,0.650,0.612,�k�k��,3.9,��
2021/04/02,14:20,0.629,0.928,0.584,1.143,0.812,0.369,0.650,0.612,�k,3.4,��
2021/04/02,14:30,0.628,0.925,0.585,1.143,0.811,0.368,0.651,0.611,�k,3.8,��
2021/04/02,14:40,0.628,0.927,0.585,1.145,0.811,0.369,0.651,0.615,�k,2.9,��
2021/04/02,14:50,0.627,0.927,0.585,1.142,0.812,0.370,0.652,0.610,�k,2.8,��
2021/04/02,15:00,0.630,0.928,0.586,1.144,0.814,0.370,0.652,0.612,�k,1.9,��
2021/04/02,15:10,0.629,0.927,0.585,1.144,0.812,0.372,0.652,0.610,�k,1.9,��
2021/04/02,15:20,0.629,0.927,0.586,1.143,0.812,0.369,0.653,0.613,�k,2.0,��
2021/04/02,15:30,0.631,0.929,0.585,1.143,0.811,0.371,0.652,0.612,�k�k��,1.2,��
2021/04/02,15:40,0.631,0.926,0.584,1.143,0.814,0.370,0.651,0.612,�k�k��,0.9,��
2021/04/02,15:50,0.629,0.929,0.586,1.143,0.812,0.371,0.654,0.613,�k�k��,1.1,��
2021/04/02,16:00,0.631,0.931,0.584,1.144,0.813,0.371,0.652,0.612,�k,1.1,��
2021/04/02,16:10,0.628,0.929,0.585,1.142,0.812,0.372,0.652,0.612,-,CALM,��
2021/04/02,16:20,0.631,0.929,0.585,1.141,0.812,0.371,0.651,0.612,-,CALM,��
2021/04/02,16:30,0.629,0.930,0.585,1.144,0.813,0.371,0.652,0.612,��쓌,1.1,��
2021/04/02,16:40,0.632,0.930,0.587,1.142,0.812,0.372,0.653,0.613,��쓌,1.2,��
2021/04/02,16:50,0.629,0.929,0.586,1.142,0.813,0.371,0.650,0.612,��쓌,2.6,��
2021/04/02,17:00,0.628,0.930,0.585,1.140,0.812,0.372,0.650,0.612,��쓌,3.0,��
2021/04/02,17:10,0.629,0.930,0.587,1.141,0.814,0.373,0.651,0.613,��,3.1,��
2021/04/02,17:20,0.627,0.931,0.586,1.141,0.812,0.371,0.651,0.615,��,3.1,��
2021/04/02,17:30,0.629,0.936,0.585,1.142,0.810,0.373,0.652,0.615,��,3.1,��
2021/04/02,17:40,0.630,0.930,0.586,1.140,0.813,0.372,0.652,0.614,��,3.3,��
2021/04/02,17:50,0.631,0.932,0.585,1.142,0.813,0.373,0.651,0.614,��,3.6,��
2021/04/02,18:00,0.631,0.931,0.585,1.144,0.811,0.372,0.651,0.614,��,3.6,��
2021/04/02,18:10,0.630,0.931,0.587,1.143,0.813,0.372,0.652,0.615,��,3.2,��
2021/04/02,18:20,0.629,0.932,0.586,1.144,0.812,0.372,0.651,0.613,��,3.7,��
2021/04/02,18:30,0.631,0.931,0.587,1.143,0.816,0.373,0.652,0.612,��,3.7,��
2021/04/02,18:40,0.630,0.931,0.588,1.142,0.814,0.372,0.652,0.614,��,3.6,��
2021/04/02,18:50,0.630,0.932,0.588,1.145,0.815,0.371,0.653,0.613,��,3.6,��
2021/04/02,19:00,0.631,0.930,0.588,1.145,0.815,0.371,0.652,0.613,��,3.9,��
2021/04/02,19:10,0.630,0.930,0.587,1.144,0.816,0.371,0.652,0.613,��,4.3,��
2021/04/02,19:20,0.631,0.930,0.588,1.144,0.815,0.371,0.652,0.611,��,3.8,��
2021/04/02,19:30,0.630,0.930,0.587,1.143,0.813,0.372,0.653,0.612,��,3.5,��
2021/04/02,19:40,0.631,0.930,0.586,1.142,0.815,0.373,0.652,0.612,��쓌,4.1,��
2021/04/02,19:50,0.631,0.931,0.587,1.143,0.815,0.372,0.654,0.613,��,4.3,��
2021/04/02,20:00,0.631,0.931,0.588,1.143,0.814,0.372,0.655,0.612,��,4.3,��
2021/04/02,20:10,0.630,0.931,0.586,1.145,0.816,0.371,0.651,0.613,��,4.7,��
2021/04/02,20:20,0.631,0.931,0.587,1.146,0.817,0.371,0.652,0.614,��,4.4,��
2021/04/02,20:30,0.631,0.930,0.587,1.143,0.815,0.370,0.653,0.611,��,4.7,��
2021/04/02,20:40,0.629,0.929,0.586,1.142,0.815,0.371,0.653,0.613,��,4.9,��
2021/04/02,20:50,0.632,0.930,0.590,1.146,0.816,0.372,0.653,0.612,��,5.3,��
2021/04/02,21:00,0.629,0.930,0.587,1.145,0.814,0.372,0.654,0.613,��쓌,5.5,��
2021/04/02,21:10,0.633,0.930,0.589,1.143,0.814,0.371,0.651,0.613,��쓌,6.0,��
2021/04/02,21:20,0.630,0.930,0.587,1.144,0.815,0.372,0.651,0.615,��쓌,6.0,��
2021/04/02,21:30,0.631,0.931,0.587,1.144,0.813,0.370,0.653,0.612,��쓌,5.6,��
2021/04/02,21:40,0.633,0.929,0.588,1.142,0.813,0.370,0.654,0.613,��쓌,6.1,��
2021/04/02,21:50,0.630,0.931,0.588,1.144,0.815,0.371,0.654,0.613,��쓌,6.6,��
2021/04/02,22:00,0.629,0.931,0.587,1.146,0.813,0.372,0.654,0.614,��,6.5,��
2021/04/02,22:10,0.630,0.931,0.588,1.145,0.812,0.371,0.652,0.614,��,6.1,��
2021/04/02,22:20,0.629,0.931,0.587,1.144,0.813,0.371,0.652,0.613,��,6.5,��
2021/04/02,22:30,0.629,0.930,0.588,1.142,0.813,0.371,0.652,0.614,��,6.7,��
2021/04/02,22:40,0.631,0.930,0.588,1.145,0.813,0.371,0.653,0.613,��,7.5,��
2021/04/02,22:50,0.629,0.930,0.586,1.145,0.814,0.371,0.653,0.613,��,6.4,��
2021/04/02,23:00,0.629,0.930,0.587,1.142,0.813,0.372,0.652,0.613,��,6.4,��
2021/04/02,23:10,0.631,0.930,0.587,1.144,0.816,0.372,0.652,0.613,��,6.6,��
2021/04/02,23:20,0.630,0.931,0.587,1.142,0.814,0.371,0.652,0.613,��,6.4,��
2021/04/02,23:30,0.630,0.930,0.587,1.144,0.814,0.372,0.653,0.613,��,6.9,��
2021/04/02,23:40,0.629,0.931,0.586,1.144,0.813,0.372,0.651,0.611,��,7.2,��
2021/04/02,23:50,0.631,0.928,0.587,1.143,0.814,0.371,0.653,0.613,��,7.3,��
